Wind_Speed
42 41 37 36 33 28 28 26 29 33 32 33 33 35 37 35 32 33 31 33 31 31 32 33 35 36 36 35 34 31 28 28 29 27 24 21 20 18 15 15 16 18 19 18 19
47 46 44 42 40 35 31 31 30 31 35 35 37 37 36 39 37 34 33 35 34 33 34 34 36 37 38 37 35 33 31 31 30 28 25 23 24 21 19 18 18 20 20 19 20
53 51 50 47 46 43 38 35 35 33 32 35 35 38 39 35 42 38 36 37 37 36 36 37 37 39 41 40 38 36 33 33 32 29 25 25 26 23 20 19 20 21 21 22 21
53 53 53 50 50 49 46 42 40 39 36 35 36 36 39 40 38 41 40 38 38 39 39 39 38 40 42 42 43 40 37 35 33 30 28 29 28 24 22 23 21 23 25 24 23
49 51 58 57 54 53 52 49 46 44 42 40 38 36 39 39 39 36 44 40 39 41 41 41 40 42 42 42 44 43 39 38 36 33 32 30 28 25 24 25 23 24 27 26 25
48 48 50 52 59 59 57 54 53 50 48 45 44 40 39 37 41 42 36 44 41 41 43 43 42 43 43 44 45 44 42 42 41 36 35 32 29 25 27 27 23 23 26 28 28
50 51 51 51 54 54 60 62 59 57 54 52 49 47 42 31 40 43 42 39 44 42 43 45 44 45 45 46 46 45 45 45 44 40 40 37 31 25 30 27 26 25 26 28 30
56 54 54 53 54 54 57 59 66 62 59 57 55 51 46 38 41 40 43 44 41 44 45 45 46 46 46 48 47 47 48 46 46 45 44 42 32 33 31 30 29 27 26 28 30
62 61 62 59 57 56 57 57 59 66 65 62 59 59 51 46 43 41 43 45 46 42 48 48 48 48 47 48 49 48 49 47 47 49 47 47 38 38 36 35 33 31 29 29 30
70 69 67 65 65 62 60 60 59 59 64 68 67 65 60 51 47 47 44 43 46 45 45 50 50 49 46 48 47 45 47 49 49 51 51 50 44 43 42 39 36 34 32 29 29
75 73 75 73 72 70 67 65 62 64 64 67 71 70 65 59 55 54 52 48 44 47 47 46 52 52 42 41 43 49 50 48 48 53 53 52 49 47 47 45 40 39 37 33 31
80 78 77 78 79 77 75 72 69 69 68 66 66 70 68 64 62 58 57 53 49 45 46 49 47 46 48 48 47 47 47 48 46 50 54 54 52 49 50 49 45 43 42 38 34
86 83 82 81 82 81 80 78 77 78 76 68 68 67 68 67 64 64 62 59 55 51 47 47 46 46 46 47 48 47 49 46 47 50 53 54 56 51 50 50 48 46 45 43 39
97 91 85 86 84 83 82 82 84 84 84 76 70 69 68 72 67 65 68 66 62 57 53 53 49 48 49 49 50 54 51 47 47 49 52 52 57 50 50 51 50 47 46 46 44
96 95 87 82 85 84 82 84 87 88 87 82 79 75 71 70 70 68 69 72 68 64 60 55 50 47 45 41 43 46 47 49 51 51 52 52 55 49 47 50 48 47 47 46 46
74 77 74 68 79 80 77 74 79 81 94 90 86 79 77 73 74 70 72 74 73 70 66 62 58 55 51 47 44 45 46 47 48 52 58 54 50 54 43 42 44 45 45 44 44
47 50 50 56 63 60 50 43 60 75 90 91 89 85 81 74 75 74 70 72 78 75 73 71 68 63 57 55 52 48 46 48 51 53 54 53 54 55 43 38 38 40 41 42 42
36 34 35 48 55 52 44 47 60 76 89 93 90 90 88 80 77 71 71 70 71 73 74 71 71 65 62 58 54 50 48 46 43 43 46 47 46 45 42 40 43 44 41 40 39
35 32 28 35 54 54 55 56 64 65 79 83 85 87 87 83 76 78 73 67 68 70 72 75 75 71 68 63 59 58 53 48 47 45 41 41 40 40 37 32 34 36 37 38 38
33 36 27 29 58 66 55 63 62 58 58 63 74 63 72 79 72 80 75 72 69 68 72 73 72 74 70 69 68 63 55 53 51 48 46 41 37 35 36 27 27 29 32 33 35
35 37 25 32 66 76 67 58 56 56 49 50 56 71 51 42 56 62 66 73 65 64 69 74 75 75 75 77 72 68 69 64 59 55 50 46 39 35 31 24 21 17 19 24 29
34 34 27 27 43 87 72 52 56 59 61 66 43 49 60 50 36 38 58 68 59 63 65 67 75 76 75 73 71 70 67 61 60 58 54 50 44 38 33 27 26 22 16 14 18
34 30 26 26 36 71 68 61 46 55 64 66 71 50 46 58 50 45 39 41 59 65 61 66 70 69 69 71 74 74 71 68 63 59 57 54 50 45 37 33 27 21 18 16 16
34 32 27 27 30 47 63 63 49 45 66 66 69 69 42 51 66 62 43 43 44 45 56 67 69 73 75 74 68 70 73 74 70 68 62 55 53 49 46 39 29 27 25 24 23
38 30 27 27 10 39 42 58 52 44 49 71 77 74 68 47 40 49 66 52 48 50 53 55 62 72 74 70 71 69 65 67 69 67 70 59 61 59 53 42 35 34 32 31 29
33 32 29 32 27 32 43 39 57 50 54 49 59 70 78 72 51 45 63 54 57 51 49 56 57 60 72 70 73 74 71 67 70 69 67 63 64 59 55 49 44 39 38 35 32
30 36 33 36 28 30 47 48 44 51 57 54 60 59 72 76 66 53 53 65 64 63 56 55 56 62 53 56 68 74 79 76 72 70 69 72 62 60 59 54 50 44 43 41 38
Wind_Direction
268 270 269 269 267 260 262 264 258 258 255 252 246 251 246 245 246 241 232 233 228 221 221 221 216 208 202 203 208 206 211 216 221 221 218 217 224 224 216 208 202 200 190 191 183
266 267 268 268 267 263 259 260 262 259 254 249 252 252 250 242 244 244 234 231 232 223 222 221 220 215 209 205 208 211 211 217 222 224 221 218 223 222 216 207 209 203 198 197 196
264 264 263 263 265 263 258 256 257 259 260 252 252 249 246 247 247 244 241 232 232 229 223 221 222 221 215 210 209 212 211 218 220 226 221 221 223 223 218 212 207 206 205 201 204
264 262 263 261 261 262 260 254 253 254 256 258 252 251 247 249 247 244 242 237 232 233 227 224 221 224 223 218 212 214 211 220 222 223 223 221 224 218 219 218 210 208 209 207 206
268 267 262 261 260 258 258 258 251 250 249 253 255 249 246 244 246 246 240 241 236 233 234 227 225 224 226 224 222 215 215 220 223 224 225 224 227 218 224 222 212 210 213 212 212
271 266 266 264 259 257 255 255 255 249 247 246 250 250 246 245 245 246 245 242 240 236 234 233 228 226 226 227 227 224 219 220 224 223 228 226 224 221 226 225 216 215 218 216 216
272 270 267 263 263 261 254 254 253 254 248 245 243 247 247 242 241 242 242 244 242 240 238 235 233 231 226 228 228 229 227 220 226 224 227 231 224 220 231 227 227 214 219 224 219
270 267 266 264 261 258 259 255 251 251 250 245 242 242 245 240 242 240 241 241 243 241 240 237 236 234 232 228 228 228 231 226 227 227 227 232 223 228 227 231 229 225 217 223 229
268 266 265 263 262 261 256 254 253 250 248 248 243 243 236 237 242 239 240 241 241 244 240 240 239 235 234 234 231 228 231 230 227 231 230 230 224 232 229 231 233 231 225 221 226
267 266 263 261 260 258 257 255 252 251 245 246 249 246 242 232 235 240 239 239 241 240 240 236 238 240 235 237 239 239 232 231 230 231 232 232 229 229 235 230 232 236 236 230 231
265 263 262 260 257 255 254 253 252 250 246 243 243 244 240 230 230 234 238 236 236 238 238 238 237 240 243 240 240 239 236 235 234 233 235 235 233 232 233 236 234 236 238 236 232
266 263 259 257 256 253 251 250 250 249 247 244 244 243 243 235 229 232 236 239 237 238 240 238 237 235 235 237 241 243 241 239 240 238 235 235 236 232 237 238 236 238 240 241 238
272 264 259 256 253 252 249 248 247 246 246 242 243 244 241 238 229 230 233 235 236 235 236 239 237 237 236 236 237 241 243 242 243 242 239 237 236 234 236 240 239 237 241 242 242
275 270 263 257 251 250 247 246 245 245 244 243 239 242 239 241 234 230 231 232 233 234 234 234 232 234 235 236 241 240 242 242 244 245 243 241 238 235 237 240 242 242 239 241 244
269 267 262 254 251 247 245 244 243 243 244 240 239 238 238 239 240 230 231 232 232 233 234 237 234 238 240 237 240 242 239 240 242 244 246 243 244 229 237 240 243 245 245 242 241
265 261 258 247 241 242 241 242 241 241 238 239 239 237 237 237 238 232 227 229 230 232 232 233 232 231 232 233 233 235 237 242 242 242 246 246 248 237 235 242 245 245 246 249 246
278 270 258 240 233 231 230 231 238 237 234 237 238 239 236 235 237 236 231 229 230 229 228 229 230 231 230 231 232 232 234 235 238 244 246 247 247 243 242 242 244 247 248 248 247
286 286 250 233 223 203 198 217 231 235 233 232 235 237 238 234 235 235 233 228 227 231 233 234 235 234 234 233 235 238 236 239 244 246 247 249 245 246 248 249 250 248 248 249 251
281 284 270 236 205 195 192 206 227 241 232 231 233 237 236 237 234 234 235 234 227 228 233 232 233 232 235 236 235 234 234 236 240 243 242 245 244 243 244 239 238 241 243 244 247
278 279 283 251 206 198 212 208 212 226 232 229 231 233 237 239 239 235 234 233 229 226 228 233 234 235 235 236 233 233 235 237 237 238 240 240 236 234 236 234 234 238 242 240 241
275 281 286 240 204 205 213 209 218 220 222 219 230 230 223 231 233 234 234 234 229 225 227 229 231 232 234 232 233 232 233 232 233 235 239 239 234 229 229 226 226 219 227 234 236
273 281 287 239 220 210 214 215 219 221 227 217 216 230 229 226 223 226 235 231 228 224 224 227 231 233 233 235 235 235 235 238 241 240 240 243 241 244 235 222 215 216 213 218 227
277 276 276 238 233 211 215 215 222 222 221 217 217 220 224 213 209 213 218 220 227 226 221 226 228 232 234 233 230 231 231 233 233 233 232 233 232 233 228 219 215 225 233 225 217
272 269 264 253 244 216 217 214 218 223 219 223 220 215 213 221 221 212 213 210 216 222 218 222 228 229 233 235 235 233 232 230 231 230 230 229 233 231 230 230 229 230 233 233 228
256 261 236 252 253 220 223 221 224 222 221 223 223 219 214 206 212 219 214 207 207 218 218 215 226 229 228 229 231 234 234 236 236 232 232 228 233 238 238 235 234 234 232 233 236
253 256 250 241 247 238 215 218 231 223 226 228 227 223 226 225 221 217 209 203 202 205 209 219 217 222 228 228 229 229 231 231 229 226 229 228 230 234 240 237 233 229 231 231 234
247 251 250 235 245 241 230 230 229 238 233 231 231 230 234 231 221 216 216 212 209 203 203 209 217 215 215 228 226 230 229 228 229 225 225 224 225 228 233 235 235 229 230 233 234
Height
5752 5753 5754 5755 5756 5756 5757 5757 5758 5759 5760 5761 5762 5763 5763 5763 5764 5767 5769 5772 5773 5776 5779 5782 5785 5789 5791 5795 5799 5802 5807 5809 5811 5814 5817 5820 5821 5824 5826 5828 5830 5832 5833 5836 5837
5742 5744 5744 5745 5747 5749 5749 5751 5752 5752 5753 5755 5757 5757 5758 5758 5759 5761 5764 5766 5769 5771 5774 5777 5781 5785 5788 5790 5795 5799 5803 5805 5808 5810 5814 5816 5817 5820 5823 5825 5827 5829 5831 5834 5836
5730 5732 5734 5734 5736 5738 5741 5743 5744 5746 5745 5747 5749 5751 5752 5752 5753 5753 5757 5760 5762 5766 5768 5771 5775 5779 5782 5785 5790 5794 5798 5800 5803 5806 5810 5812 5813 5816 5819 5822 5823 5826 5828 5831 5834
5718 5720 5721 5723 5725 5727 5730 5733 5735 5738 5739 5739 5741 5742 5744 5746 5747 5747 5750 5754 5756 5760 5762 5765 5769 5773 5777 5781 5782 5788 5791 5795 5798 5802 5805 5807 5808 5812 5815 5817 5819 5822 5825 5827 5830
5706 5706 5709 5710 5713 5716 5717 5721 5724 5727 5730 5731 5732 5734 5736 5738 5742 5740 5743 5747 5749 5752 5756 5758 5762 5766 5770 5775 5778 5782 5787 5789 5793 5797 5799 5802 5805 5808 5810 5811 5815 5818 5820 5824 5826
5692 5693 5695 5696 5699 5702 5705 5707 5711 5715 5718 5720 5722 5725 5726 5734 5733 5733 5735 5738 5742 5745 5748 5752 5755 5759 5763 5767 5771 5777 5779 5783 5786 5791 5793 5796 5800 5804 5804 5806 5811 5815 5816 5820 5823
5681 5681 5682 5682 5685 5686 5690 5692 5697 5700 5705 5708 5711 5714 5718 5729 5724 5724 5726 5729 5733 5736 5739 5743 5747 5751 5755 5758 5763 5769 5772 5776 5779 5784 5786 5789 5795 5800 5798 5802 5805 5809 5812 5814 5818
5670 5669 5668 5670 5670 5672 5675 5677 5680 5685 5689 5694 5698 5702 5709 5717 5713 5717 5718 5721 5723 5727 5731 5735 5738 5741 5747 5750 5754 5760 5764 5769 5773 5775 5779 5782 5791 5791 5794 5796 5798 5803 5807 5810 5813
5654 5655 5654 5655 5656 5657 5659 5661 5664 5669 5673 5677 5683 5686 5699 5705 5707 5706 5709 5712 5714 5717 5720 5725 5729 5733 5738 5742 5746 5751 5756 5760 5765 5766 5771 5774 5783 5783 5787 5790 5792 5796 5800 5804 5807
5635 5635 5636 5638 5639 5641 5643 5644 5648 5652 5655 5661 5665 5672 5682 5693 5695 5697 5699 5703 5705 5707 5710 5715 5719 5725 5730 5735 5741 5742 5745 5749 5755 5758 5761 5765 5774 5776 5777 5783 5786 5790 5794 5798 5802
5614 5615 5615 5617 5619 5622 5625 5629 5633 5634 5636 5644 5648 5655 5663 5676 5681 5683 5686 5691 5694 5697 5701 5704 5709 5719 5726 5726 5726 5731 5736 5741 5745 5748 5752 5756 5763 5767 5770 5773 5780 5783 5786 5790 5795
5588 5590 5591 5593 5596 5600 5604 5608 5614 5614 5617 5625 5631 5639 5645 5658 5668 5671 5675 5680 5685 5690 5692 5695 5702 5708 5710 5713 5718 5723 5727 5734 5736 5739 5742 5746 5752 5759 5762 5765 5772 5776 5779 5784 5787
5556 5561 5563 5567 5569 5577 5582 5590 5590 5590 5593 5608 5614 5620 5631 5637 5651 5658 5662 5667 5672 5677 5682 5686 5694 5695 5697 5704 5708 5713 5718 5724 5726 5727 5731 5736 5742 5750 5754 5757 5762 5769 5772 5775 5780
5517 5522 5531 5535 5543 5549 5560 5566 5562 5565 5568 5586 5598 5602 5611 5616 5631 5643 5648 5652 5658 5665 5670 5673 5678 5683 5687 5693 5699 5702 5709 5711 5714 5717 5722 5727 5731 5742 5746 5749 5754 5758 5763 5768 5771
5478 5482 5491 5498 5510 5523 5538 5532 5537 5541 5540 5571 5574 5585 5591 5598 5612 5626 5631 5633 5641 5651 5657 5665 5672 5675 5679 5688 5689 5695 5697 5699 5702 5707 5710 5718 5719 5736 5737 5742 5745 5748 5753 5758 5762
5444 5447 5455 5464 5475 5499 5506 5507 5509 5512 5517 5537 5549 5564 5572 5583 5586 5599 5609 5616 5625 5633 5642 5648 5654 5660 5669 5674 5677 5681 5685 5688 5691 5695 5699 5709 5711 5720 5733 5735 5736 5740 5744 5748 5752
5425 5425 5431 5438 5456 5470 5481 5485 5482 5475 5515 5520 5533 5543 5554 5563 5569 5577 5592 5600 5607 5615 5625 5630 5636 5646 5655 5661 5665 5670 5675 5678 5681 5684 5693 5697 5701 5711 5722 5727 5729 5731 5734 5737 5742
5415 5413 5415 5422 5436 5454 5463 5464 5455 5468 5490 5500 5511 5518 5527 5542 5551 5559 5567 5581 5595 5603 5611 5619 5625 5637 5644 5650 5658 5663 5667 5672 5675 5680 5685 5686 5694 5704 5710 5716 5720 5723 5726 5729 5733
5404 5403 5405 5412 5423 5435 5438 5436 5441 5451 5468 5478 5492 5495 5505 5516 5531 5539 5550 5567 5580 5589 5596 5602 5608 5618 5628 5637 5645 5649 5655 5663 5665 5670 5675 5680 5690 5696 5701 5707 5709 5711 5716 5720 5723
5394 5392 5401 5399 5405 5415 5418 5420 5429 5441 5451 5465 5472 5480 5488 5500 5510 5521 5532 5551 5562 5571 5579 5582 5592 5601 5611 5616 5624 5634 5647 5648 5653 5659 5665 5674 5680 5688 5693 5698 5699 5703 5706 5710 5714
5384 5382 5389 5383 5388 5392 5396 5411 5420 5433 5441 5455 5458 5465 5476 5484 5493 5504 5517 5532 5544 5557 5561 5564 5572 5581 5583 5594 5611 5620 5622 5632 5641 5649 5656 5664 5673 5679 5684 5691 5693 5697 5699 5702 5706
5376 5376 5377 5375 5378 5380 5392 5405 5413 5422 5431 5442 5448 5453 5464 5476 5481 5490 5500 5514 5524 5538 5541 5552 5552 5558 5572 5582 5594 5603 5612 5622 5631 5642 5649 5656 5666 5671 5678 5683 5686 5690 5694 5697 5699
5368 5370 5369 5368 5365 5373 5383 5393 5401 5407 5415 5425 5436 5445 5452 5463 5472 5477 5486 5495 5501 5515 5526 5535 5532 5543 5552 5560 5569 5580 5596 5607 5617 5626 5634 5645 5654 5659 5667 5673 5678 5683 5686 5690 5693
5360 5360 5362 5361 5362 5366 5374 5383 5391 5396 5404 5412 5422 5434 5441 5446 5454 5463 5473 5482 5489 5497 5507 5514 5518 5528 5539 5555 5564 5571 5579 5587 5596 5608 5623 5633 5641 5649 5656 5664 5673 5676 5678 5681 5685
5351 5353 5355 5356 5358 5363 5367 5375 5382 5385 5393 5399 5408 5417 5427 5435 5438 5448 5463 5469 5479 5487 5494 5501 5506 5515 5526 5533 5543 5554 5564 5572 5580 5603 5602 5629 5628 5634 5645 5656 5663 5667 5669 5672 5676
5342 5347 5347 5351 5353 5355 5357 5363 5371 5378 5380 5387 5394 5409 5414 5421 5432 5441 5447 5456 5464 5473 5481 5487 5495 5500 5507 5519 5526 5533 5543 5551 5564 5580 5590 5608 5614 5624 5632 5640 5648 5657 5659 5662 5666
5335 5339 5339 5344 5344 5345 5350 5356 5363 5369 5371 5379 5389 5397 5399 5409 5422 5434 5435 5441 5446 5454 5464 5474 5480 5488 5493 5502 5511 5509 5524 5537 5553 5567 5580 5584 5608 5613 5616 5624 5635 5644 5649 5652 5656